Other Public Products
Issued by NWS Charleston, SC

Current Version | Previous Version | Graphics & Text | Print | Product List | Glossary On
Versions: 1 2 3 4 5 6 7 8 9 10 11 12 13 14 15 16 17 18 19 20 21 22 23 24 25 26 27 28 29 30 31 32 33 34 35 36 37 38 39 40 41 42 43 44 45 46 47 48 49 50
000 FPUS82 KCHS 221912 OPUCHS TEST...KCHS/KSAV Gateway Observations...TEST National Weather Service Charleston SC 300 PM EDT SUN APR 22 2018 NOTE: "fair" indicates few or no clouds below 12,000 feet with no significant weather and/or obstructions to visibility. SCZ050-WAZ558-NCZ071-TXZ119-213-PAZ071-DCZ001-FLZ074-172-MI076- NYZ176-178-MAZ016-IL014-TNZ027-NJZ106-GAZ044-MD014-222000- ...Gateway Observations for Charleston International... CITY SKY/WX TMP DP RH WIND PRES REMARKS Chas Airport PTSUNNY 73 52 47 E14 30.26F Seattle PTSUNNY 53 38 56 N9 30.39F Charlotte CLOUDY 68 41 37 SE8G17 30.30S Dallas DFW PTSUNNY 63 43 48 NW17G25 30.06F Dallas Love MOSUNNY 66 45 46 NW16G22 30.07F Philladelphia PTSUNNY 63 23 21 S8 30.37F Wash National PTSUNNY 65 44 46 SE13 30.35F Baltimore PTSUNNY 64 35 34 E8 30.36F Miami PTSUNNY 84 70 62 SE17 30.05F Detroit FAIR 60 27 28 SE6 30.38F Newark FAIR 66 36 32 NW6 30.34F Laguardia FAIR 63 14 15 E8 30.34F J F K FAIR 59 25 27 S18 30.37F Boston Logan FAIR 61 14 16 N10G22 30.30F Ft. Lauderdale PTSUNNY 82 75 79 SE17 30.04F Chicago O`Hare PTSUNNY 60 24 25 E15 30.31F Chicago Midway PTSUNNY 60 25 26 NE16G25 30.31F Houston Bush FAIR 68 54 60 N14 30.04F Houston Hobby FAIR 68 54 60 NW18 30.02F Nashville LGT RAIN 60 56 86 E20G28 30.10F FOG Atlanta LGT RAIN 60 59 96 SE16G28 30.16F $$ GAZ044-118-TXZ119-213-NCZ071-DCZ001-MDZ014-506-PAZ021-071-NJZ106- NYZ176-178-MAZ106-OHZ011-021-055-MIZ076-KYZ091-ILZ014-INZ047- MNZ060-ONZ431-222000- ...Gateway Observations for Savannah International... CITY SKY/WX TMP DP RH WIND PRES REMARKS Savannah Arpt CLOUDY 70 55 59 E16G23 30.22F Atlanta LGT RAIN 60 59 96 SE16G28 30.16F Charlotte CLOUDY 68 41 37 SE8G17 30.30S Dallas DFW PTSUNNY 63 43 48 NW17G25 30.06F Houston Bush FAIR 68 54 60 N14 30.04F Wash National PTSUNNY 65 44 46 SE13 30.35F Wash Dulles PTSUNNY 66 40 38 VRB6 30.33F Baltimore PTSUNNY 64 35 34 E8 30.36F Philadelphia PTSUNNY 63 23 21 S8 30.37F Newark FAIR 66 36 32 NW6 30.34F Laguardia FAIR 63 14 15 E8 30.34F J F K FAIR 59 25 27 S18 30.37F Boston FAIR 61 14 16 N10G22 30.30F Pittsburg PTSUNNY 65 26 23 VRB5 30.29F Akron FAIR 65 24 21 NE9 30.30F Cleveland PTSUNNY 55 27 34 NE20 30.37F Cincinnati CLOUDY 66 30 26 NE15 30.22F Columbus FAIR 65 29 25 NE10G17 30.26F Detroit FAIR 60 27 28 SE6 30.38F Chicago O`Hare PTSUNNY 60 24 25 E15 30.31F Minneapolis FAIR 61 33 35 E6 30.31F Indianapolis PTSUNNY 63 25 23 E14 30.22F Toronto Canada SUNNY 61 23 23 S12 30.39F $$

USA.gov is the U.S. government's official web portal to all federal, state and local government web resources and services.